User: anonymous   Login
Location: Mentone
(34.5413°N, 85.5351°W)
Time: 16:40:44
(UTC-05:00)
Language:

SL-8 R/B - Orbit

View from above orbital plane
View from above orbital plane
View from above satellite
View from above satellite

Ground track
Ground track

The orbit data is extracted from the following two-line orbital elements,

1 33066U 08031G   16243.96241259 -.00000040  00000-0  26025-4 0  9998
2 33066  48.4449  27.8416 0007850 326.5381 180.1664 14.69461024440077
Epoch (UTC): 30 August 2016 23:05:52
Eccentricity: 0.0007850
inclination: 48.4449°
perigee height: 657 km
apogee height: 668 km
right ascension of ascending node: 27.8416°
argument of perigee: 326.5381°
revolutions per day: 14.69461024
mean anomaly at epoch: 180.1664°
orbit number at epoch: 44007

The dashed part of the orbit path shows where the satellite is in the earth's shadow,  

DLR